Theta_e
351 349 349 346 352 352 353 350 346 346 345 344 343 344 343 343 343 340 339 341 329 332 334 334 336 336 334 334 334 333 338 341 339 340 337 336 334 334 338 335 334 336 333 334 335 335 338 335 334
346 350 350 343 349 351 353 347 346 342 344 344 344 343 344 344 344 344 343 336 329 332 334 335 335 335 335 337 335 335 333 337 341 342 340 333 332 334 334 336 338 339 336 326 331 338 338 339 344
349 346 346 342 346 353 352 348 345 344 343 342 343 342 344 345 345 342 336 337 331 332 331 332 333 334 335 336 337 338 338 337 334 336 338 338 341 339 341 341 340 340 329 328 338 339 340 344 344
349 344 341 344 349 347 349 346 345 345 344 344 344 346 344 343 344 344 342 336 334 335 335 334 333 334 334 333 336 336 339 338 337 338 340 341 341 341 340 342 340 335 333 335 339 337 341 342 343
347 342 346 348 347 348 347 348 346 345 346 346 345 347 346 345 344 344 345 337 335 336 332 334 334 335 336 335 336 336 341 341 341 342 342 341 340 340 339 340 339 340 340 339 338 337 340 342 343
341 342 351 350 349 347 344 347 346 345 346 347 347 347 346 343 342 345 344 341 331 332 330 334 335 334 335 334 337 337 339 339 339 341 340 338 337 333 335 337 338 339 339 340 340 337 343 342 345
342 346 351 350 349 350 349 347 346 344 346 346 346 346 344 340 340 343 341 332 330 330 332 334 334 335 338 337 336 336 335 338 339 340 339 337 334 333 328 327 327 330 332 332 335 336 342 344 346
340 346 352 350 351 349 347 347 348 345 344 346 346 346 345 342 344 343 336 333 328 332 332 333 334 337 335 331 333 336 334 329 335 336 337 337 332 332 332 330 329 326 325 325 328 332 338 343 341
343 349 352 351 349 343 345 347 347 346 343 344 344 345 344 345 344 344 344 340 334 334 334 333 333 336 333 334 331 325 324 326 330 335 335 335 337 336 335 335 332 329 325 324 324 327 337 340 341
345 349 350 347 343 341 339 347 346 344 344 345 346 344 344 343 346 345 345 344 339 336 333 330 336 330 331 330 332 332 337 336 334 335 336 338 339 339 338 338 334 332 325 325 335 340 341 341 342
348 351 348 347 344 343 348 347 348 347 347 347 347 345 342 343 344 343 344 342 341 337 339 341 333 332 329 340 343 344 346 345 343 343 342 340 338 337 338 338 340 344 341 339 341 344 342 341 342
348 343 348 341 341 347 347 343 347 346 344 345 346 346 342 340 344 343 342 339 337 341 337 340 337 343 334 339 344 343 342 343 344 339 338 339 337 339 339 339 343 346 348 347 346 345 344 344 342
343 341 348 347 348 345 347 348 347 346 344 344 347 346 344 342 342 344 343 342 341 337 337 339 340 340 340 340 338 340 341 336 340 339 338 338 339 338 337 341 344 344 347 343 343 342 342 342 341
343 345 345 345 347 346 346 346 347 345 345 342 345 345 345 344 345 344 344 344 340 340 337 335 340 340 342 343 340 338 337 339 338 339 339 338 336 338 336 340 344 345 344 343 341 341 342 343 342
347 347 345 347 347 346 344 346 347 346 344 345 343 343 343 343 344 343 344 343 343 343 339 335 337 339 336 342 342 339 337 336 339 338 339 335 337 336 335 343 344 345 344 342 342 342 341 342 340
348 342 346 345 348 345 341 344 345 345 344 345 344 343 343 343 342 342 342 342 343 343 342 339 341 344 342 343 341 340 340 340 337 333 336 335 335 337 341 343 346 344 346 346 345 344 344 342 340
347 345 347 344 345 345 341 342 343 342 344 345 344 342 342 343 343 341 341 340 343 343 343 341 341 345 344 345 340 341 343 342 340 337 334 336 337 340 342 343 345 344 345 346 346 346 346 345 342
345 349 348 350 350 345 344 343 339 340 342 343 345 343 342 343 344 342 341 341 342 342 342 344 342 343 344 345 343 343 343 343 343 338 335 334 337 339 343 343 341 344 347 347 348 348 347 348 345
344 342 343 349 350 348 346 344 341 338 339 341 342 345 341 341 343 343 342 342 342 342 343 344 344 340 340 345 344 343 341 342 344 340 341 339 340 340 341 344 344 347 345 347 344 346 347 346 342
343 346 349 342 346 344 343 345 342 338 338 340 341 344 344 344 343 343 343 342 343 341 342 345 344 342 339 344 344 343 344 343 340 341 342 341 344 342 342 341 342 347 347 345 346 347 349 345 343
345 345 347 340 346 344 346 346 344 340 338 338 338 342 345 345 341 344 343 343 343 343 342 344 344 343 340 339 344 345 345 346 345 345 345 346 343 345 343 334 338 346 346 343 347 345 350 347 346
343 339 342 340 345 349 346 349 347 343 343 341 341 340 345 345 344 345 344 344 344 345 343 343 343 343 341 344 343 344 344 343 342 345 343 342 342 347 344 336 343 339 342 346 344 347 344 344 346
326 339 339 346 345 345 350 349 342 344 345 343 342 341 343 344 344 344 346 346 345 345 343 342 342 343 341 342 344 345 346 346 343 344 345 341 341 344 345 341 340 339 339 344 344 334 343 344 347
326 332 334 337 334 332 338 348 339 346 341 339 340 340 342 342 344 345 345 345 345 345 343 343 342 343 342 341 345 344 345 344 344 346 347 345 343 344 347 345 337 337 340 339 344 339 343 346 347
320 318 321 325 335 337 334 338 336 343 342 340 338 340 341 341 342 343 344 345 346 346 345 344 343 343 343 342 343 343 344 345 343 345 345 346 346 341 346 341 338 338 338 336 338 345 342 347 344
323 318 319 330 337 335 335 338 341 342 339 341 340 341 341 340 340 343 342 345 346 346 346 346 344 344 344 342 345 344 344 344 344 344 345 346 346 345 343 343 344 339 337 336 339 340 343 345 347
323 324 320 331 334 336 339 339 339 341 341 338 339 340 340 341 341 342 343 342 344 347 347 346 346 345 344 339 340 344 342 343 346 345 344 345 349 347 348 346 346 343 346 351 347 341 339 348 349
324 323 325 327 336 342 339 343 343 343 344 341 335 337 342 342 341 340 342 341 343 343 345 347 347 346 346 342 337 340 344 341 345 346 348 347 348 348 348 348 347 346 346 348 346 344 343 345 348
323 326 328 328 330 336 339 342 337 339 339 337 336 340 340 342 342 340 342 341 342 344 345 347 346 346 347 346 341 338 341 342 345 347 349 346 345 346 349 348 348 348 348 347 345 344 344 345 345
327 326 325 329 334 334 336 336 336 338 338 337 340 340 342 344 342 341 340 341 341 344 345 346 347 346 347 347 345 341 337 339 342 343 346 348 344 344 347 346 347 349 347 347 348 346 347 346 344
Wind_Speed
1 3 5 3 2 3 4 10 14 9 7 3 18 10 11 10 3 4 21 15 19 20 20 20 20 20 18 17 16 16 16 20 21 19 18 16 15 16 16 16 15 14 15 18 19 20 19 19 19
3 2 4 3 4 3 2 9 12 8 18 27 20 19 9 5 15 27 23 26 21 21 23 21 19 20 18 16 15 15 16 18 17 17 16 15 14 14 14 13 13 13 15 18 20 20 19 18 19
8 7 3 3 3 3 3 1 14 19 20 15 9 17 6 7 25 28 26 26 23 23 22 22 20 19 18 15 15 14 14 14 15 15 13 13 13 13 12 12 12 15 18 20 20 20 20 19 20
11 5 4 4 2 5 6 1 23 25 22 23 25 9 14 19 24 26 25 25 23 22 20 19 17 16 16 16 15 15 13 14 14 14 14 13 13 14 14 16 18 18 19 19 20 19 18 18 17
8 8 4 3 2 4 6 10 9 19 16 23 26 11 12 15 24 24 25 24 23 21 19 18 17 15 15 14 14 14 15 16 15 15 15 14 15 15 16 19 19 17 17 17 17 17 18 17 16
10 5 1 3 5 10 9 18 4 24 26 25 26 17 6 27 26 27 23 19 21 21 19 18 16 15 14 14 14 14 16 13 13 14 16 15 16 13 13 14 13 14 13 13 16 17 18 14 15
8 2 3 5 4 4 8 8 11 23 29 15 25 10 16 30 27 25 22 22 22 21 19 18 16 14 13 13 13 13 14 12 13 13 14 14 15 13 13 13 12 11 10 12 14 15 15 17 17
9 2 7 7 6 4 10 5 4 14 7 27 35 8 11 33 32 25 25 20 20 19 18 17 15 13 12 14 15 14 13 13 13 14 16 16 15 14 14 13 12 11 12 13 13 13 15 15 14
8 2 4 9 13 4 7 5 7 9 23 18 6 35 35 41 29 28 25 22 22 20 18 17 14 11 14 14 14 14 14 14 14 14 17 16 15 14 13 13 13 13 14 14 15 16 16 14 13
4 1 2 5 11 9 7 9 10 12 16 9 33 36 33 36 38 31 29 24 23 22 21 20 18 15 15 18 20 21 19 16 15 15 16 15 14 12 9 10 12 14 15 17 19 18 17 14 12
6 4 4 3 15 20 6 7 7 15 14 31 41 43 40 42 36 31 28 23 21 21 22 21 20 21 21 21 16 13 12 14 15 12 12 13 13 12 10 9 11 14 16 17 16 13 12 12 12
6 3 8 6 12 9 4 2 10 11 17 35 41 42 43 40 41 34 28 25 22 23 19 18 23 22 24 19 13 12 11 10 13 14 12 11 13 11 8 11 10 9 9 9 9 8 8 7 8
5 7 9 12 6 11 12 9 8 15 22 26 40 43 36 28 38 33 27 24 16 23 17 22 19 19 18 18 15 14 10 7 10 13 11 9 8 8 7 7 8 8 9 10 10 9 10 9 5
7 11 9 10 3 3 3 1 2 5 17 22 35 27 30 30 32 30 27 24 23 24 23 24 22 15 17 17 14 14 8 7 12 10 6 11 7 13 11 10 9 8 12 14 11 8 8 9 9
18 15 9 8 4 3 7 4 3 3 24 17 17 27 28 27 29 32 30 27 26 24 22 22 25 12 19 18 16 13 12 12 10 12 7 12 9 15 15 14 13 11 12 14 11 9 6 4 5
9 8 10 12 9 1 5 2 3 8 25 16 10 21 31 29 28 27 27 25 26 23 21 21 20 17 17 20 13 20 17 11 11 10 17 9 17 19 13 15 13 14 11 9 7 5 7 9 6
5 6 11 6 8 3 3 5 11 10 15 8 15 21 31 22 21 29 23 27 27 22 19 19 18 15 18 16 14 18 14 11 9 9 9 13 15 13 10 9 10 11 10 8 6 6 2 2 4
6 5 6 5 5 5 4 4 6 15 14 8 9 13 23 22 25 27 25 28 25 20 17 21 19 21 19 15 14 13 12 9 7 7 14 9 9 12 11 7 11 7 4 7 8 11 9 3 6
7 6 6 2 5 1 3 5 10 8 12 11 7 8 12 17 26 23 27 32 27 22 24 22 20 16 26 21 17 18 15 10 12 7 9 8 5 12 7 9 10 6 8 7 10 14 8 12 5
10 9 4 2 3 2 3 9 8 6 7 13 10 11 14 15 18 10 22 33 30 29 26 24 22 18 21 22 21 15 15 11 14 11 10 9 6 9 4 9 12 10 10 11 9 9 9 7 6
3 8 5 6 5 1 4 7 7 4 14 13 18 16 18 17 22 19 37 35 31 25 25 25 22 19 18 19 21 20 16 16 19 15 14 9 9 6 5 4 13 15 13 13 10 6 9 10 8
7 11 16 15 5 3 11 4 5 5 6 10 11 20 23 22 24 27 35 36 32 25 23 24 24 20 19 24 24 20 18 17 15 12 13 11 12 6 4 4 21 12 14 11 9 5 10 7 7
9 14 19 15 5 4 9 3 6 5 7 12 19 21 24 24 23 30 31 34 31 28 23 23 23 23 23 26 24 22 18 15 15 14 12 11 12 8 6 7 12 11 13 7 6 8 8 6 6
2 7 6 5 3 2 5 8 6 2 12 0 17 26 20 26 24 26 32 34 28 29 29 26 23 24 24 26 24 24 19 19 16 19 16 12 8 10 8 6 9 10 6 8 11 5 4 5 3
8 7 4 4 4 5 5 2 5 8 12 11 12 23 28 30 30 32 30 30 29 31 31 29 27 26 26 30 27 24 22 22 18 18 19 18 11 11 12 8 5 6 7 9 10 5 5 5 5
2 7 6 5 3 4 5 3 4 4 20 24 4 24 31 30 33 33 32 31 29 33 30 30 29 27 27 32 30 25 25 25 21 15 16 17 14 12 9 9 5 4 5 7 8 6 5 6 5
2 0 5 7 2 3 5 5 3 6 6 14 22 4 23 29 32 33 35 29 31 28 28 30 29 28 26 26 32 29 26 27 21 17 18 17 13 15 16 15 9 7 7 7 5 6 9 10 6
6 3 3 4 3 2 3 4 4 3 6 4 7 6 5 16 30 29 36 33 28 31 30 29 29 29 28 25 26 31 28 26 23 24 21 20 16 13 18 20 15 10 12 13 12 10 10 11 11
4 2 7 6 3 4 1 5 3 5 4 8 9 9 12 16 21 29 32 35 35 31 31 32 31 29 31 27 25 28 30 28 28 24 22 19 18 16 14 18 14 11 13 12 12 13 12 12 14
4 4 5 5 3 1 3 5 6 6 9 9 9 12 16 13 15 27 32 33 35 34 37 36 36 33 33 31 27 28 29 29 29 31 26 19 20 18 16 16 18 15 15 14 15 12 12 14 14
Wind_Direction
31 326 340 337 90 57 40 88 74 109 139 211 162 192 118 52 133 162 146 155 140 127 125 124 122 121 116 119 119 117 114 129 133 134 135 134 137 131 132 138 136 128 129 128 127 124 118 113 120
17 51 20 345 77 58 91 121 105 81 109 113 118 107 48 65 101 131 149 154 141 128 126 123 122 116 115 117 116 117 120 123 135 143 141 139 137 135 144 142 139 139 130 138 129 126 125 128 126
21 5 2 64 69 74 71 132 118 114 110 108 96 69 85 98 129 138 144 155 152 137 131 126 127 122 120 116 116 117 123 126 127 131 133 133 131 126 123 130 138 135 137 131 127 132 131 129 119
16 28 59 65 352 64 357 227 109 100 109 114 103 67 89 135 135 143 141 150 152 145 140 135 132 130 127 128 126 121 119 125 128 128 128 124 118 115 114 119 129 134 129 132 132 139 139 135 125
77 39 3 84 315 36 341 293 260 126 112 106 110 110 100 138 141 141 146 145 153 147 141 136 133 131 128 128 124 120 119 120 119 122 123 122 117 114 113 119 118 129 128 130 135 145 148 137 123
74 105 48 32 46 29 293 295 239 107 111 108 107 112 108 142 143 151 150 147 148 145 143 138 136 131 133 128 125 123 125 127 120 120 120 121 114 116 116 126 125 128 140 136 139 147 145 120 119
99 63 43 19 359 280 266 340 111 122 124 131 126 108 135 149 144 146 149 148 147 145 141 138 138 135 132 129 127 126 127 132 126 120 121 124 119 115 107 107 112 120 127 124 127 138 141 123 119
113 119 127 188 198 285 264 298 322 133 119 141 129 143 155 148 142 137 132 137 143 142 139 138 132 131 126 130 128 129 132 134 133 123 123 125 121 110 99 98 104 108 107 112 123 138 146 129 129
125 76 207 166 168 212 242 264 33 113 135 143 178 150 148 148 152 143 137 134 143 143 140 132 132 127 131 127 123 123 123 127 132 128 126 125 119 115 113 107 105 107 109 115 121 132 141 139 129
108 294 273 147 149 175 273 276 126 132 172 120 124 142 147 155 155 150 148 148 147 148 143 136 129 126 125 126 123 119 121 122 129 134 135 134 132 125 118 110 112 107 109 115 120 122 121 113 120
78 285 89 86 158 134 206 355 317 165 198 150 145 154 151 160 163 153 155 155 148 138 139 133 135 134 140 135 126 127 138 137 146 149 145 145 142 133 127 124 126 120 117 119 117 110 113 113 118
116 274 88 142 134 109 46 311 42 165 163 160 157 154 155 162 162 160 159 154 159 144 137 143 145 139 143 146 148 161 134 158 164 157 155 159 144 133 135 142 140 126 117 115 108 107 107 131 143
106 165 110 137 156 145 133 40 55 69 137 154 155 156 160 164 165 164 164 163 151 154 157 154 160 163 155 149 144 139 128 151 153 163 156 154 153 143 160 147 143 128 126 127 113 98 96 79 89
129 119 115 127 148 145 67 77 354 68 159 159 159 159 168 168 171 166 171 166 142 143 147 164 170 168 173 178 156 151 140 173 191 183 179 196 175 182 172 162 146 136 128 121 116 108 87 82 83
94 64 79 53 319 20 352 158 114 104 169 181 185 143 142 159 174 166 168 162 147 139 139 158 164 147 158 161 169 157 173 158 134 167 183 171 167 149 158 152 141 140 128 133 130 118 124 163 141
95 61 57 278 296 204 69 240 174 96 161 191 196 153 141 154 170 176 167 163 152 146 140 154 155 149 146 149 148 143 161 176 175 142 161 146 149 144 143 145 145 145 141 146 152 166 124 100 148
214 155 199 274 213 152 135 259 144 131 142 122 149 158 159 150 163 165 175 171 165 153 148 155 158 161 157 147 153 152 161 186 158 129 153 125 139 147 144 140 142 148 154 153 170 178 170 169 139
193 139 185 209 185 205 157 244 250 180 131 136 124 140 160 146 161 163 176 180 173 166 159 153 158 176 175 159 160 146 154 148 170 142 142 151 138 146 141 149 154 146 137 132 125 113 106 111 242
153 121 144 66 174 95 206 262 244 148 195 165 152 136 177 191 167 182 191 184 174 169 167 165 165 166 184 171 159 159 158 173 164 159 162 171 147 158 124 152 165 179 183 177 155 141 88 123 139
144 133 118 94 254 42 41 281 264 229 188 201 198 181 173 176 178 187 186 177 177 171 176 179 171 167 181 180 176 168 165 170 175 179 189 180 162 164 158 178 179 194 193 183 172 151 103 88 109
130 156 166 139 148 43 48 298 277 217 230 221 216 208 192 176 182 182 177 176 176 179 180 180 179 176 179 184 177 173 176 168 171 184 196 183 185 166 147 175 183 195 200 195 176 161 124 108 114
171 210 150 157 141 196 151 263 261 241 225 196 193 214 210 188 179 170 178 177 181 190 190 190 184 184 184 177 174 181 178 183 182 177 183 196 190 169 151 185 175 158 192 185 179 157 99 96 79
212 164 168 182 159 100 189 351 263 163 245 234 202 213 217 204 190 186 179 184 185 191 196 197 199 190 193 189 187 185 191 190 197 178 172 181 193 183 175 153 173 194 171 178 196 159 149 147 61
113 106 143 165 99 100 230 174 280 200 251 269 200 210 208 219 201 188 187 184 190 195 198 203 203 200 200 204 197 192 192 196 189 187 186 196 200 193 184 180 177 191 168 197 199 187 158 113 166
61 61 3 356 10 223 258 159 227 349 299 238 198 197 201 210 209 192 191 190 197 200 205 208 207 203 206 205 204 198 200 198 192 200 194 193 200 203 207 203 195 198 203 189 181 184 198 212 224
132 142 158 192 195 253 303 332 323 344 20 37 345 201 194 203 207 207 204 198 192 206 204 211 211 207 208 208 208 208 207 205 201 200 200 208 209 198 194 190 194 199 200 205 218 218 218 219 224
253 300 184 108 349 79 316 312 285 16 18 9 42 102 193 197 203 211 202 203 202 196 207 210 214 209 210 209 209 209 208 210 207 203 195 195 207 211 201 212 209 215 206 216 235 242 234 226 229
148 177 39 21 120 210 297 279 234 4 313 316 15 33 309 212 211 216 210 206 206 216 221 213 217 217 211 208 207 210 210 206 201 195 198 200 211 232 218 207 211 213 216 228 248 256 253 244 244
331 101 56 108 107 149 196 269 228 157 258 309 352 353 347 241 218 216 211 209 222 223 218 215 216 221 216 213 208 211 214 207 200 199 209 213 216 216 193 192 211 207 221 230 244 243 244 253 246
117 137 118 121 229 128 173 270 121 155 234 283 13 14 14 29 237 230 227 229 237 227 219 220 219 222 221 219 216 214 214 212 208 209 215 216 219 219 210 220 214 218 222 227 240 257 260 273 259